This is the latest recevied weather packets stored in our database for station/object G4RHR. If no packets are shown the sender has not sent any weather packets the latest 10 day(s).
| Time | Temp. | Humidity | Pressure | Rain* | Wind** | Luminosity | Snow |
|---|---|---|---|---|---|---|---|
| 1777284180 | 18.33° C | 60% | 1023.5 hPa | 0 mm | - | - | - |
| 1777283100 | 17.78° C | 60% | 1023.6 hPa | 0 mm | - | - | - |
| 1777278783 | 15.56° C | 68% | 1023.8 hPa | 0 mm | - | - | - |
| 1777273920 | 11.11° C | 87% | 1024 hPa | 0 mm | - | - | - |
| 1777273383 | 10.56° C | 88% | 1024 hPa | 0 mm | - | - | - |
| 1777270277 | 7.22° C | 94% | 1023.9 hPa | 0 mm | - | - | - |
| 1777263795 | 6.11° C | 92% | 1023 hPa | 0 mm | - | - | - |
| 1777262581 | 6.67° C | 92% | 1023.2 hPa | 0 mm | - | - | - |
| 1777262041 | 6.67° C | 92% | 1023.3 hPa | 0 mm | - | - | - |
| 1777253941 | 6.67° C | 91% | 1024 hPa | 0 mm | - | - | - |
| 1777251244 | 6.67° C | 91% | 1023.9 hPa | 0 mm | - | - | - |
| 1777250163 | 6.67° C | 90% | 1024.1 hPa | 0 mm | - | - | - |
| 1777248539 | 6.67° C | 90% | 1024.1 hPa | 0 mm | - | - | - |
| 1777247460 | 6.67° C | 89% | 1024.2 hPa | 0 mm | - | - | - |
| 1777244220 | 7.22° C | 88% | 1024.2 hPa | 0 mm | - | - | - |
| 1777243681 | 7.22° C | 88% | 1024.2 hPa | 0 mm | - | - | - |
| 1777239363 | 7.78° C | 87% | 1024.2 hPa | 0 mm | - | - | - |
| 1777233961 | 8.89° C | 80% | 1024.2 hPa | 0 mm | - | - | - |
| 1777233421 | 8.89° C | 80% | 1024.2 hPa | 0 mm | - | - | - |
| 1777232341 | 9.44° C | 79% | 1024.1 hPa | 0 mm | - | - | - |
| 1777231801 | 9.44° C | 79% | 1024.1 hPa | 0 mm | - | - | - |
| 1777225320 | 11.67° C | 72% | 1023.9 hPa | 0 mm | - | - | - |
| 1777221001 | 13.89° C | 66% | 1024.2 hPa | 0 mm | - | - | - |
| 1777218432 | 14.44° C | 65% | 1024.2 hPa | 0 mm | - | - | - |
| 1777216681 | 14.44° C | 66% | 1024.3 hPa | 0 mm | - | - | - |
* Rain latest hour (hover to see other rain measurements)
** Current wind speed in m/s (hover to see current wind gust speed)